Location: Alto Pass Reservoir
(37.5801°N, 89.3084°W)
Time: 20:37:45
(UTC+00:00)

Aureole 3 Rocket - Pass Details

Date: 08 December 2021
Orbit: 399 x 1737 km, 82.5° (Epoch: 16 January)

Event Time Altitude Azimuth Distance (km) Brightness Sun altitude
Rises 23:29:37 0° 150° (SSE) 2,718 6.3 -10.0°
Reaches altitude 10° 23:31:50 10° 135° (SE) 1,979 5.4 -10.4°
Maximum altitude 23:35:20 24° 81° (E) 1,506 4.4 -11.0°
Drops below altitude 10° 23:39:48 10° 30° (NNE) 2,593 5.8 -11.9°
Sets 23:43:10 0° 18° (NNE) 3,804 6.7 -12.5°
